[[{"header":{"parameterUnit":"m.s-1","parameterCategory":1,"la1":30.2991,"la2":30.254,"lo1":-89.0895,"lo2":-89.0444,"dy":0.0017,"dx":0.0017,"nx":28,"ny":28,"refTime":"2025-04-21T09:00:00:Z","depth":0,"parameterNumber":2,"parameterNumberName":"U-component_of_WINDS"},"data":[0,0,0,0,0,0,0,0,0,0,0,0,0,0,0,0,0,0,0,0,0,0,0,0,0,0,0,0,0,0,0,0,0,0,0,0,0,0,0,0,0,0,0,0,0,0,0,0,0,0,0,0,0,0,0,0,0,0,0.0389,0.0389,0,0.0419,0.0419,0.0419,0.0421,0.0421,0.042,0.042,0.045,0.0451,0.0452,0,0,0,0,0,0,0,0,0,0,0,0,0,0.0332,0.0333,0.0389,0.0389,0.039,0.0418,0.0419,0.0419,0.0421,0.0421,0.042,0.042,0.045,0.0451,0.0452,0,0,0,0,0,0,0,0,0,0,0,0,0,0.0359,0.0334,0.0389,0.0394,0.0395,0.0418,0.0419,0.0419,0.0421,0.0421,0.042,0.042,0.0449,0.0451,0.0452,0.0473,0,0,0.0458,0.0458,0,0,0,0,0,0,0,0,0.0357,0.0361,0.0393,0.0394,0.0395,0.0416,0.041,0.0437,0.0421,0.0411,0.042,0.042,0.0439,0.0441,0.0448,0.0474,0.0475,0.0458,0.0459,0.0459,0.046,0,0,0,0,0,0,0,0.0355,0.036,0.0401,0.0393,0.0394,0.0394,0.0398,0.0415,0.0427,0.0412,0.0412,0.0416,0.0439,0.0446,0.0449,0.0476,0.0458,0.0459,0.046,0.0461,0.0518,0.0519,0,0,0,0,0,0,0.0353,0.0358,0.04,0.0401,0.0374,0.0396,0.0399,0.0409,0.0427,0.043,0.0416,0.0416,0.0444,0.0447,0.045,0.0474,0.0459,0.0461,0.0462,0.0518,0.0519,0.0519,0,0,0,0,0,0,0.0352,0.0356,0.0398,0.038,0.0385,0.0397,0.0408,0.041,0.0417,0.043,0.0433,0.0421,0.0444,0.0447,0.0467,0.0475,0.0462,0.0463,0.0517,0.0518,0.0519,0.0523,0,0,0,0,0,0,0.035,0.0356,0.0364,0.038,0.0386,0.0415,0.0409,0.0411,0.042,0.042,0.0436,0.0438,0.0444,0.0464,0.0468,0.0477,0.0464,0.0517,0.0518,0.0519,0.0522,0.0523,0.0525,0,0,0,0,0,0.0348,0.0364,0.0365,0.037,0.0397,0.0416,0.0419,0.0425,0.0421,0.0429,0.0437,0.0437,0.0473,0.0466,0.0471,0.048,0.0516,0.0517,0.0519,0.0521,0.0523,0.0525,0,0,0,0,0,0,0.0349,0.0366,0.0367,0.0389,0.0401,0.0416,0.0426,0.0428,0.0441,0.044,0.0447,0.045,0.0469,0.0477,0.0468,0.05,0.0494,0.0496,0.0495,0.0497,0.0498,0.0496,0.0466,0,0,0,0,0,0.0352,0.0366,0.0381,0.0399,0.0404,0.0414,0.0423,0.0427,0.0439,0.0444,0.0454,0.0465,0.0479,0.0488,0.0502,0.0523,0.0526,0.0531,0.0533,0.0534,0.0536,0.0546,0.0549,0.0523,0.0523,0.0523,0,0,0.0358,0.0369,0.0378,0.0399,0.0409,0.0423,0.0419,0.0434,0.0444,0.0446,0.0465,0.0472,0.0486,0.0506,0.0515,0.0512,0.0544,0.0536,0.0536,0.0538,0.0548,0.055,0.0553,0.0524,0.0524,0.0524,0,0,0.0376,0.0386,0.0402,0.0412,0.0426,0.0432,0.0436,0.0451,0.0456,0.0475,0.0476,0.0488,0.0512,0.0522,0.0529,0.055,0.055,0.0554,0.0562,0.0572,0.0574,0.0576,0.0583,0.0585,0.0556,0.0556,0.0556,0,0.0382,0.0404,0.041,0.0425,0.0434,0.0436,0.0452,0.0461,0.0479,0.0484,0.0481,0.0511,0.052,0.0542,0.0547,0.0553,0.0557,0.0552,0.0574,0.0575,0.0577,0.0584,0.0586,0.0556,0.0556,0.0556,0.0556,0,0.0409,0.0424,0.0435,0.0452,0.0463,0.0478,0.0486,0.0495,0.0498,0.0504,0.0522,0.0534,0.0549,0.0554,0.0557,0.0576,0.0574,0.0572,0.0566,0.058,0.0586,0.0589,0.0557,0.0556,0.0556,0.0556,0,0,0.043,0.045,0.0454,0.0461,0.0477,0.0488,0.0503,0.0518,0.0525,0.0538,0.055,0.0569,0.0567,0.0576,0.058,0.0589,0.0604,0.0586,0.0586,0.0588,0.0624,0.0625,0.0628,0.0604,0.0604,0.0605,0.0623,0,0.0449,0.0476,0.0482,0.0505,0.0518,0.052,0.0533,0.0543,0.055,0.0561,0.0568,0.0582,0.0578,0.0584,0.0593,0.06,0.0611,0.0599,0.0615,0.0615,0.0611,0.0632,0.0633,0.065,0.0625,0.0626,0.0626,0,0.0476,0.0488,0.0513,0.0526,0.0532,0.0543,0.0557,0.0568,0.058,0.0584,0.0593,0.0595,0.061,0.0604,0.0624,0.0615,0.0622,0.0626,0.0627,0.0629,0.0621,0.0633,0.0655,0.0658,0.063,0.063,0.0629,0,0.0488,0.051,0.0528,0.0534,0.055,0.0558,0.0565,0.0576,0.0584,0.0596,0.0601,0.0615,0.0622,0.0632,0.0637,0.0632,0.0657,0.0651,0.066,0.066,0.0665,0.0664,0.0688,0.067,0.067,0.067,0.067,0,0.0509,0.0523,0.0533,0.0544,0.056,0.0566,0.0581,0.0588,0.0598,0.0609,0.0612,0.0622,0.0629,0.0641,0.0645,0.066,0.0664,0.0667,0.0668,0.0667,0.0666,0.0671,0.067,0.067,0.067,0.067,0.067,0,0.0524,0.0532,0.0551,0.0564,0.0567,0.0579,0.0589,0.0599,0.0605,0.062,0.0623,0.0632,0.0646,0.0652,0.0669,0.0672,0.0689,0.069,0.0685,0.0686,0.0694,0.0693,0.0721,0.0725,0.0705,0.0705,0.0705,0,0.0537,0.0549,0.0563,0.0571,0.0578,0.059,0.0599,0.0605,0.0613,0.0627,0.0635,0.0648,0.0659,0.0681,0.0688,0.0701,0.0701,0.071,0.0703,0.0701,0.0701,0.07,0.0701,0.0712,0.0712,0.0712,0.0712,0,0.0559,0.0562,0.0574,0.0587,0.0597,0.0608,0.0618,0.0624,0.0632,0.0641,0.0655,0.0663,0.068,0.0693,0.0706,0.0713,0.0713,0.0714,0.0717,0.0716,0.0712,0.0714,0.0688,0.0714,0.0713,0.0713,0.0713,0.0713,0.0574,0.0583,0.0595,0.0608,0.0616,0.0626,0.0635,0.0642,0.0654,0.0668,0.0671,0.0685,0.0695,0.0713,0.0719,0.073,0.0728,0.0732,0.0733,0.0734,0.0734,0.0711,0.0733,0.0733,0.0733,0.0733,0.0733,0,0.0595,0.0602,0.0614,0.0629,0.0639,0.0638,0.065,0.0658,0.0671,0.068,0.0691,0.0706,0.0719,0.0727,0.074,0.0747,0.0747,0.075,0.0749,0.0751,0.0736,0.0732,0.0749,0.0749,0.0749,0.0749,0.0749,0.0749,0.0607,0.0623,0.0627,0.0647,0.0654,0.0669,0.0675,0.0683,0.0691,0.0708,0.0718,0.0724,0.0733,0.0746,0.0757,0.0759,0.0763,0.0766,0.0768,0.0754,0.0752,0.075,0.0747,0.0767,0.0767,0.0782,0.0782,0.0782]},{"header":{"parameterUnit":"m.s-1","parameterCategory":1,"la1":30.2991,"la2":30.254,"lo1":-89.0895,"lo2":-89.0444,"dy":0.0017,"dx":0.0017,"nx":28,"ny":28,"refTime":"2025-04-21T09:00:00:Z","depth":0,"parameterNumber":3,"parameterNumberName":"V-component_of_WINDS"},"data":[0,0,0,0,0,0,0,0,0,0,0,0,0,0,0,0,0,0,0,0,0,0,0,0,0,0,0,0,0,0,0,0,0,0,0,0,0,0,0,0,0,0,0,0,0,0,0,0,0,0,0,0,0,0,0,0,0,0,2.1245,2.1245,0,2.1215,2.1214,2.1214,2.1162,2.1161,2.1161,2.116,2.1129,2.1129,2.1129,0,0,0,0,0,0,0,0,0,0,0,0,0,2.126,2.126,2.1245,2.1245,2.1245,2.1215,2.1214,2.1214,2.1163,2.1161,2.116,2.1159,2.1129,2.1129,2.1129,0,0,0,0,0,0,0,0,0,0,0,0,0,2.1244,2.126,2.1245,2.1215,2.1212,2.1215,2.1214,2.1214,2.1163,2.1161,2.116,2.1159,2.1129,2.1129,2.1129,2.1158,0,0,2.1129,2.1129,0,0,0,0,0,0,0,0,2.1245,2.1244,2.122,2.1218,2.1214,2.1191,2.1208,2.1195,2.1163,2.1182,2.116,2.1158,2.1151,2.1149,2.1146,2.1157,2.1155,2.1129,2.1129,2.1129,2.1129,0,0,0,0,0,0,0,2.1246,2.1245,2.1233,2.122,2.1216,2.1204,2.12,2.1205,2.1175,2.118,2.1176,2.1173,2.1149,2.1146,2.1145,2.1155,2.1129,2.1129,2.1129,2.1129,2.1187,2.1189,0,0,0,0,0,0,2.1252,2.1246,2.1234,2.1232,2.1226,2.1205,2.12,2.12,2.1174,2.1169,2.1174,2.1171,2.1147,2.1145,2.1144,2.1176,2.1129,2.1129,2.1129,2.1186,2.1188,2.1189,0,0,0,0,0,0,2.1252,2.1251,2.1235,2.1238,2.1235,2.1206,2.1206,2.12,2.1197,2.117,2.1164,2.1178,2.1145,2.1144,2.1155,2.1174,2.1129,2.1129,2.1184,2.1186,2.1188,2.1241,0,0,0,0,0,0,2.1253,2.1252,2.1263,2.1239,2.1235,2.1247,2.1207,2.12,2.1198,2.1193,2.1172,2.1167,2.1144,2.1155,2.1155,2.1174,2.1129,2.1182,2.1185,2.1188,2.1238,2.1245,2.1251,0,0,0,0,0,2.1254,2.1279,2.1263,2.1262,2.1248,2.1248,2.1246,2.122,2.1199,2.121,2.1192,2.1167,2.1172,2.1156,2.1156,2.1175,2.1181,2.1184,2.1187,2.1234,2.1243,2.1251,0,0,0,0,0,0,2.1306,2.1275,2.1258,2.1276,2.1265,2.124,2.1252,2.123,2.1225,2.1221,2.1188,2.1184,2.1199,2.1188,2.1171,2.1202,2.1172,2.1176,2.1208,2.1217,2.1223,2.1226,2.113,0,0,0,0,0,2.132,2.1322,2.1295,2.1314,2.1309,2.1282,2.1281,2.1261,2.1249,2.1244,2.1227,2.1217,2.1215,2.1215,2.1213,2.1236,2.123,2.1248,2.1255,2.1261,2.1264,2.1275,2.1283,2.12,2.12,2.12,0,0,2.1348,2.1331,2.1335,2.1324,2.1313,2.1317,2.1278,2.1284,2.1286,2.1245,2.1254,2.1242,2.1227,2.1244,2.1251,2.1236,2.1286,2.1265,2.127,2.127,2.128,2.1287,2.1294,2.1202,2.1202,2.1202,0,0,2.1401,2.1389,2.1403,2.1393,2.1377,2.1359,2.1362,2.134,2.133,2.1339,2.1308,2.131,2.1309,2.13,2.1295,2.1345,2.1321,2.1345,2.1381,2.1392,2.1398,2.1404,2.1421,2.1428,2.1348,2.1348,2.1349,0,2.1438,2.1442,2.1413,2.142,2.1416,2.1379,2.1393,2.1385,2.1369,2.1367,2.135,2.1348,2.1336,2.135,2.1362,2.1359,2.1362,2.1347,2.14,2.1405,2.141,2.1426,2.1433,2.1351,2.1351,2.1351,2.135,0,2.1489,2.1492,2.1505,2.1491,2.1488,2.1499,2.1471,2.1472,2.1453,2.1436,2.1446,2.143,2.1423,2.1425,2.1406,2.1436,2.1427,2.1406,2.1375,2.1421,2.1436,2.1442,2.1356,2.1355,2.1354,2.1353,0,0,2.1574,2.1543,2.1549,2.1542,2.1521,2.1523,2.1532,2.1526,2.1527,2.1517,2.1524,2.1524,2.1503,2.1498,2.1478,2.1488,2.1528,2.1464,2.1463,2.1477,2.156,2.1576,2.1584,2.1512,2.1513,2.1514,2.1561,0,2.1623,2.1637,2.1611,2.163,2.1633,2.1597,2.1605,2.1594,2.1578,2.1578,2.1561,2.1561,2.1534,2.1531,2.1539,2.1521,2.1544,2.1517,2.1518,2.1518,2.1523,2.1592,2.161,2.1655,2.1567,2.1567,2.1568,0,2.1682,2.1676,2.1696,2.1674,2.1674,2.1681,2.1673,2.1673,2.166,2.1648,2.1642,2.1618,2.1625,2.1596,2.1605,2.1588,2.1586,2.1578,2.1579,2.1578,2.1546,2.1593,2.1669,2.1676,2.1577,2.1576,2.1576,0,2.1743,2.1739,2.175,2.1745,2.172,2.1726,2.1716,2.17,2.1698,2.1691,2.1689,2.1683,2.1679,2.1675,2.165,2.1631,2.1662,2.1631,2.1653,2.1653,2.1661,2.1661,2.1738,2.166,2.166,2.166,2.166,0,2.18,2.1814,2.1777,2.1784,2.1798,2.1768,2.1783,2.1769,2.1755,2.1759,2.1728,2.1732,2.1699,2.1699,2.168,2.169,2.1689,2.168,2.1674,2.1683,2.1684,2.1681,2.1678,2.1662,2.1661,2.1661,2.1661,0,2.1871,2.1846,2.1856,2.1831,2.1825,2.1837,2.1816,2.1821,2.1804,2.1809,2.1808,2.1781,2.178,2.1754,2.1748,2.1735,2.1753,2.1742,2.1758,2.1754,2.1777,2.1776,2.1855,2.1864,2.1781,2.1782,2.1783,0,2.1909,2.1919,2.1895,2.1895,2.1886,2.1887,2.1884,2.1855,2.1853,2.1838,2.1845,2.1842,2.1837,2.1837,2.1817,2.1811,2.18,2.1828,2.1799,2.1807,2.18,2.18,2.1801,2.1834,2.1835,2.1836,2.1837,0,2.198,2.1967,2.1964,2.1958,2.1955,2.1948,2.194,2.1942,2.1909,2.1909,2.1907,2.1904,2.1897,2.1894,2.1885,2.1874,2.185,2.1846,2.1851,2.186,2.1869,2.1864,2.1775,2.1845,2.1844,2.1843,2.1843,2.1843,2.2035,2.2042,2.2026,2.2024,2.2015,2.2007,2.2011,2.1994,2.1992,2.1984,2.1967,2.1968,2.1953,2.1939,2.193,2.193,2.1916,2.1923,2.1924,2.1927,2.1931,2.1868,2.1929,2.1928,2.1928,2.1928,2.1928,0,2.2105,2.2093,2.2091,2.208,2.2078,2.2055,2.2044,2.2045,2.2046,2.2034,2.203,2.2029,2.2025,2.2004,2.1998,2.2003,2.1991,2.2002,2.2002,2.1999,2.1944,2.1941,2.2011,2.2011,2.2011,2.2011,2.2011,2.2011,2.2141,2.2151,2.2136,2.2142,2.2129,2.213,2.2126,2.2119,2.2109,2.2108,2.2105,2.2092,2.2076,2.2069,2.2064,2.2058,2.2058,2.2072,2.2062,2.2011,2.2003,2.1996,2.1992,2.2072,2.2072,2.2117,2.2118,2.2118]}]]